Weather History for Wildwood, NJ

Change the Weather History Date:

Saturday, August 18, 2012

  Actual Average Record
Temperature  
Mean Temperature 71 °F -  
Max Temperature 78 °F 79 °F 91 °F (2002)
Min Temperature 64 °F 65 °F 60 °F (2014)
Cooling Degree Days 6    
Growing Degree Days 21 (Base 50)    
Moisture  
Dew Point 64 °F    
Average Humidity 77    
Maximum Humidity 94    
Minimum Humidity 54    
Precipitation  
Precipitation 0.89 in - - ()
Sea Level Pressure  
Sea Level Pressure 29.89 in    
Wind  
Wind Speed 5 mph (North)    
Max Wind Speed 13 mph    
Max Gust Speed 18 mph    
Visibility 9 miles    
Events      
Averages and records for this station are not official NWS values.
T = Trace of Precipitation, MM = Missing Value Source: NWS Daily Summary

Daily Weather History Graph

Daily Weather History Graph

Search for Another Location

Airport:

Trip Planner

Search our weather history database for the weather conditions in past years. The results will help you decide how hot, cold, wet, or windy it might be!

Date:

Astronomy

Aug. 18, 2012 Rise Set
Actual Time 6:16 AM EDT 7:49 PM EDT
Civil Twilight 5:47 AM EDT 8:18 PM EDT
Nautical Twilight 5:13 AM EDT 8:51 PM EDT
Astronomical Twilight 4:37 AM EDT 9:27 PM EDT
Moon 7:20 AM EDT (8/18) 8:05 PM EDT (8/18)
Length of Visible Light 14h 30m
Length of Day
13h 33m
New Moon, 1% of the Moon is Illuminated
Aug 18
New Moon
Aug 24
First Quarter
Aug 31
Full
Sep 8
Last Quarter
Sep 15
New

Hourly Weather History & Observations

Time (EDT) Temp. Dew Point Humidity Pressure Visibility Wind Dir Wind Speed Gust Speed Precip Events Conditions
12:15 AM 75.2 °F 69.8 °F 83% 29.86 in 10.0 mi West 8.1 mph - N/A   Mostly Cloudy
12:55 AM 75.2 °F 68.0 °F 78% 29.85 in 10.0 mi Calm Calm - N/A   Partly Cloudy
1:15 AM 75.2 °F 68.0 °F 78% 29.85 in 10.0 mi Calm Calm - N/A   Clear
1:35 AM 75.2 °F 68.0 °F 78% 29.85 in 10.0 mi Calm Calm - N/A   Partly Cloudy
1:55 AM 75.2 °F 68.0 °F 78% 29.84 in 10.0 mi Calm Calm - N/A   Mostly Cloudy
2:15 AM 73.4 °F 68.0 °F 83% 29.84 in 10.0 mi NNW 4.6 mph - N/A   Mostly Cloudy
2:35 AM 73.4 °F 68.0 °F 83% 29.84 in 10.0 mi NNW 5.8 mph - N/A   Partly Cloudy
2:55 AM 73.4 °F 66.2 °F 78% 29.84 in 10.0 mi North 4.6 mph - N/A   Clear
3:15 AM 73.4 °F 66.2 °F 78% 29.83 in 10.0 mi NNW 4.6 mph - N/A   Clear
3:35 AM 71.6 °F 66.2 °F 83% 29.84 in 10.0 mi NNW 3.5 mph - N/A   Partly Cloudy
3:55 AM 71.6 °F 66.2 °F 83% 29.83 in 9.0 mi NNW 4.6 mph - 0.01 in   Mostly Cloudy
4:15 AM 71.6 °F 66.2 °F 83% 29.83 in 8.0 mi North 4.6 mph - 0.02 in   Mostly Cloudy
4:35 AM 71.6 °F 66.2 °F 83% 29.85 in 10.0 mi Calm Calm - 0.02 in   Overcast
4:55 AM 71.6 °F 66.2 °F 83% 29.85 in 7.0 mi North 6.9 mph - 0.05 in   Mostly Cloudy
5:15 AM 69.8 °F 66.2 °F 88% 29.84 in 6.0 mi NNE 5.8 mph - 0.02 in   Mostly Cloudy
5:35 AM 69.8 °F 66.2 °F 88% 29.83 in 6.0 mi NE 6.9 mph - 0.02 in   Mostly Cloudy
5:55 AM 69.8 °F 66.2 °F 88% 29.83 in 7.0 mi ENE 4.6 mph - 0.03 in   Overcast
6:15 AM 69.8 °F 66.2 °F 88% 29.86 in 8.0 mi NNW 3.5 mph - N/A   Overcast
6:35 AM 69.8 °F 66.2 °F 88% 29.87 in 5.0 mi North 8.1 mph - 0.09 in   Overcast
6:55 AM 68.0 °F 64.4 °F 88% 29.88 in 2.0 mi NNW 6.9 mph - 0.68 in   Overcast
7:15 AM 66.2 °F 64.4 °F 94% 29.89 in 9.0 mi North 12.7 mph - 0.12 in   Overcast
7:35 AM 66.2 °F 62.6 °F 88% 29.89 in 10.0 mi NNE 10.4 mph - 0.12 in   Overcast
7:55 AM 64.4 °F 60.8 °F 88% 29.89 in 10.0 mi North 8.1 mph - 0.12 in   Overcast
8:15 AM 64.4 °F 62.6 °F 94% 29.89 in 10.0 mi North 9.2 mph - N/A   Overcast
8:35 AM 66.2 °F 62.6 °F 88% 29.89 in 10.0 mi North 8.1 mph - N/A   Overcast
8:55 AM 66.2 °F 62.6 °F 88% 29.88 in 10.0 mi North 10.4 mph - N/A   Overcast
9:15 AM 68.0 °F 62.6 °F 83% 29.88 in 10.0 mi NNE 12.7 mph - N/A   Scattered Clouds
9:35 AM 69.8 °F 62.6 °F 78% 29.88 in 10.0 mi North 12.7 mph - N/A   Partly Cloudy
9:55 AM 69.8 °F 64.4 °F 83% 29.88 in 10.0 mi NNE 9.2 mph - N/A   Partly Cloudy
10:15 AM 71.6 °F 64.4 °F 78% 29.89 in 10.0 mi North 11.5 mph 18.4 mph N/A   Scattered Clouds
10:35 AM 71.6 °F 64.4 °F 78% 29.90 in 10.0 mi North 10.4 mph - N/A   Mostly Cloudy
10:55 AM 71.6 °F 64.4 °F 78% 29.91 in 10.0 mi NNE 11.5 mph - N/A   Mostly Cloudy
11:15 AM 71.6 °F 64.4 °F 78% 29.91 in 10.0 mi North 9.2 mph - N/A   Mostly Cloudy
11:35 AM 73.4 °F 62.6 °F 69% 29.91 in 10.0 mi North 10.4 mph - N/A   Overcast
11:55 AM 73.4 °F 64.4 °F 73% 29.91 in 10.0 mi North 8.1 mph - N/A   Mostly Cloudy
12:15 PM 73.4 °F 62.6 °F 69% 29.90 in 10.0 mi NE 8.1 mph - N/A   Mostly Cloudy
12:35 PM 75.2 °F 64.4 °F 69% 29.90 in 10.0 mi NNE 9.2 mph - N/A   Mostly Cloudy
12:55 PM 75.2 °F 62.6 °F 65% 29.90 in 10.0 mi North 9.2 mph - N/A   Mostly Cloudy
1:15 PM 73.4 °F 62.6 °F 69% 29.90 in 10.0 mi North 8.1 mph - N/A   Scattered Clouds
1:35 PM 75.2 °F 64.4 °F 69% 29.90 in 10.0 mi North 6.9 mph - N/A   Mostly Cloudy
1:55 PM 75.2 °F 64.4 °F 69% 29.90 in - NW 8.1 mph - N/A   Mostly Cloudy
2:15 PM 75.2 °F 62.6 °F 65% 29.90 in - NW 6.9 mph - N/A   Scattered Clouds
2:35 PM 77.0 °F 62.6 °F 61% 29.90 in - North 8.1 mph - N/A   Mostly Cloudy
2:55 PM 77.0 °F 62.6 °F 61% 29.90 in - NNW 5.8 mph - N/A   Mostly Cloudy
3:15 PM 78.8 °F 62.6 °F 57% 29.90 in - North 9.2 mph - N/A   Scattered Clouds
3:35 PM 77.0 °F 62.6 °F 61% 29.89 in - NNW 5.8 mph - N/A   Partly Cloudy
3:55 PM 78.8 °F 62.6 °F 57% 29.89 in - NNW 8.1 mph - N/A   Clear
4:15 PM 78.8 °F 60.8 °F 54% 29.89 in - NNW 8.1 mph - N/A   Clear
4:35 PM 78.8 °F 60.8 °F 54% 29.88 in - NNW 5.8 mph - N/A   Clear
4:55 PM 78.8 °F 60.8 °F 54% 29.88 in - North 5.8 mph - N/A   Clear
5:15 PM 78.8 °F 60.8 °F 54% 29.87 in - North 4.6 mph - N/A   Clear
5:55 PM 77.0 °F 62.6 °F 61% 29.88 in - East 6.9 mph - N/A   Partly Cloudy
6:15 PM 75.2 °F 62.6 °F 65% 29.88 in 10.0 mi East 6.9 mph - N/A   Partly Cloudy
6:35 PM 75.2 °F 64.4 °F 69% 29.88 in 10.0 mi SE 5.8 mph - N/A   Clear
6:55 PM 73.4 °F 64.4 °F 73% 29.89 in 10.0 mi SE 5.8 mph - N/A   Clear
7:15 PM 73.4 °F 64.4 °F 73% 29.90 in 10.0 mi SE 5.8 mph - N/A   Clear
7:35 PM 73.4 °F 64.4 °F 73% 29.90 in 10.0 mi SSE 4.6 mph - N/A   Clear
7:55 PM 71.6 °F 62.6 °F 73% 29.90 in 10.0 mi SSE 4.6 mph - N/A   Clear
8:15 PM 69.8 °F 62.6 °F 78% 29.90 in 10.0 mi SE 4.6 mph - N/A   Clear
8:35 PM 69.8 °F 62.6 °F 78% 29.91 in 10.0 mi Calm Calm - N/A   Clear
8:55 PM 69.8 °F 62.6 °F 78% 29.92 in 8.0 mi Calm Calm - N/A   Clear
9:15 PM 69.8 °F 62.6 °F 78% 29.92 in 10.0 mi SE 3.5 mph - N/A   Clear
9:35 PM 68.0 °F 62.6 °F 83% 29.93 in 10.0 mi Calm Calm - N/A   Clear
9:55 PM 68.0 °F 62.6 °F 83% 29.94 in 10.0 mi Calm Calm - N/A   Clear
10:15 PM 66.2 °F 62.6 °F 88% 29.93 in 10.0 mi Calm Calm - N/A   Clear
10:35 PM 66.2 °F 62.6 °F 88% 29.93 in 10.0 mi Calm Calm - N/A   Clear
10:55 PM 66.2 °F 62.6 °F 88% 29.94 in 10.0 mi Calm Calm - N/A   Clear
11:15 PM 64.4 °F 62.6 °F 94% 29.94 in 10.0 mi Calm Calm - N/A   Clear
11:35 PM 64.4 °F 62.6 °F 94% 29.94 in 10.0 mi Calm Calm - N/A   Clear
11:55 PM 64.4 °F 62.6 °F 94% 29.94 in 10.0 mi Calm Calm - N/A   Clear